Time,TemperatureF,DewpointF,PressureIn,WindDirection,WindDirectionDegrees,WindSpeedMPH,WindSpeedGustMPH,Humidity,HourlyPrecipIn,Conditions,Clouds,dailyrainin,SoftwareType,DateUTC
2013-08-06 00:22:00,76.0,-99.9,-100.00,WNW,303,1.0,-999.0,122,0.00,,,-99.99,,2013-08-06 05:22:00,
2013-08-06 00:32:00,76.0,-99.9,-100.00,WNW,303,1.0,-999.0,122,0.00,,,-99.99,,2013-08-06 05:32:00,
2013-08-06 00:43:00,76.0,-99.9,-100.00,WNW,303,1.0,-999.0,122,0.00,,,-99.99,,2013-08-06 05:43:00,
2013-08-06 01:22:00,78.0,-99.9,-100.00,NW,320,2.0,-999.0,117,0.00,,,-99.99,,2013-08-06 06:22:00,
2013-08-06 01:32:00,78.0,-99.9,-100.00,NW,320,2.0,-999.0,117,0.00,,,-99.99,,2013-08-06 06:32:00,
2013-08-06 01:43:00,78.0,-99.9,-100.00,NW,320,2.0,-999.0,117,0.00,,,-99.99,,2013-08-06 06:43:00,
2013-08-06 02:22:00,77.0,-99.9,-100.00,NW,308,1.0,-999.0,119,0.00,,,-99.99,,2013-08-06 07:22:00,
2013-08-06 02:32:00,77.0,-99.9,-100.00,NW,308,1.0,-999.0,119,0.00,,,-99.99,,2013-08-06 07:32:00,
2013-08-06 02:44:00,77.0,-99.9,-100.00,NW,308,1.0,-999.0,119,0.00,,,-99.99,,2013-08-06 07:44:00,
2013-08-06 03:22:00,77.0,-99.9,-100.00,North,9,3.0,-999.0,121,0.00,,,-99.99,,2013-08-06 08:22:00,
2013-08-06 03:33:00,77.0,-99.9,-100.00,North,9,3.0,-999.0,121,0.00,,,-99.99,,2013-08-06 08:33:00,
2013-08-06 03:43:00,77.0,-99.9,-100.00,North,9,3.0,-999.0,121,0.00,,,-99.99,,2013-08-06 08:43:00,
2013-08-06 04:22:00,77.0,-99.9,-100.00,North,354,3.0,-999.0,122,0.00,,,-99.99,,2013-08-06 09:22:00,
2013-08-06 04:33:00,77.0,-99.9,-100.00,North,354,3.0,-999.0,122,0.00,,,-99.99,,2013-08-06 09:33:00,
2013-08-06 04:43:00,77.0,-99.9,-100.00,North,354,3.0,-999.0,122,0.00,,,-99.99,,2013-08-06 09:43:00,
2013-08-06 05:22:00,76.0,-99.9,-100.00,North,8,4.0,-999.0,121,0.00,,,-99.99,,2013-08-06 10:22:00,
2013-08-06 05:32:00,76.0,-99.9,-100.00,North,8,4.0,-999.0,121,0.00,,,-99.99,,2013-08-06 10:32:00,
2013-08-06 05:43:00,76.0,-99.9,-100.00,North,8,4.0,-999.0,121,0.00,,,-99.99,,2013-08-06 10:43:00,
2013-08-06 06:22:00,76.0,-99.9,-100.00,North,10,4.0,-999.0,124,0.00,,,-99.99,,2013-08-06 11:22:00,
2013-08-06 06:32:00,76.0,-99.9,-100.00,North,10,4.0,-999.0,124,0.00,,,-99.99,,2013-08-06 11:32:00,
2013-08-06 06:43:00,76.0,-99.9,-100.00,North,10,4.0,-999.0,124,0.00,,,-99.99,,2013-08-06 11:43:00,
2013-08-06 07:22:00,75.0,-99.9,-100.00,NNW,347,3.0,-999.0,123,0.00,,,-99.99,,2013-08-06 12:22:00,
2013-08-06 07:32:00,75.0,-99.9,-100.00,NNW,347,3.0,-999.0,123,0.00,,,-99.99,,2013-08-06 12:32:00,
2013-08-06 07:43:00,75.0,-99.9,-100.00,NNW,347,3.0,-999.0,123,0.00,,,-99.99,,2013-08-06 12:43:00,
2013-08-06 08:22:00,79.0,-99.9,-100.00,NW,308,6.0,-999.0,120,0.00,,,-99.99,,2013-08-06 13:22:00,
2013-08-06 08:32:00,79.0,-99.9,-100.00,NW,308,6.0,-999.0,120,0.00,,,-99.99,,2013-08-06 13:32:00,
2013-08-06 08:42:00,79.0,-99.9,-100.00,NW,308,6.0,-999.0,120,0.00,,,-99.99,,2013-08-06 13:42:00,
2013-08-06 09:22:00,82.0,81.0,-100.00,NW,321,10.0,-999.0,98,0.00,,,-99.99,,2013-08-06 14:22:00,
2013-08-06 09:32:00,82.0,81.0,-100.00,NW,321,10.0,-999.0,98,0.00,,,-99.99,,2013-08-06 14:32:00,
2013-08-06 09:42:00,82.0,81.0,-100.00,NW,321,10.0,-999.0,98,0.00,,,-99.99,,2013-08-06 14:42:00,
2013-08-06 10:22:00,84.0,78.0,-100.00,NNW,332,8.0,-999.0,82,0.00,,,-99.99,,2013-08-06 15:22:00,
2013-08-06 10:33:00,84.0,78.0,-100.00,NNW,332,8.0,-999.0,82,0.00,,,-99.99,,2013-08-06 15:33:00,
2013-08-06 10:44:00,84.0,78.0,-100.00,NNW,332,8.0,-999.0,82,0.00,,,-99.99,,2013-08-06 15:44:00,
2013-08-06 11:22:00,86.0,78.0,-100.00,NNW,336,5.0,-999.0,75,0.00,,,-99.99,,2013-08-06 16:22:00,
2013-08-06 11:32:00,86.0,78.0,-100.00,NNW,336,5.0,-999.0,75,0.00,,,-99.99,,2013-08-06 16:32:00,
2013-08-06 11:43:00,86.0,78.0,-100.00,NNW,336,5.0,-999.0,75,0.00,,,-99.99,,2013-08-06 16:43:00,
2013-08-06 12:21:00,88.0,78.0,-100.00,NW,310,6.0,-999.0,70,0.00,,,-99.99,,2013-08-06 17:21:00,
2013-08-06 12:32:00,88.0,78.0,-100.00,NW,310,6.0,-999.0,70,0.00,,,-99.99,,2013-08-06 17:32:00,
2013-08-06 12:44:00,88.0,78.0,-100.00,NW,310,6.0,-999.0,70,0.00,,,-99.99,,2013-08-06 17:44:00,
2013-08-06 13:22:00,89.0,79.0,-100.00,SW,218,6.0,-999.0,71,0.00,,,-99.99,,2013-08-06 18:22:00,
2013-08-06 13:32:00,89.0,79.0,-100.00,SW,218,6.0,-999.0,71,0.00,,,-99.99,,2013-08-06 18:32:00,
2013-08-06 13:43:00,89.0,79.0,-100.00,SW,218,6.0,-999.0,71,0.00,,,-99.99,,2013-08-06 18:43:00,
2013-08-06 14:21:00,87.0,80.0,-100.00,South,176,8.0,-999.0,79,0.00,,,-99.99,,2013-08-06 19:21:00,
2013-08-06 14:32:00,87.0,80.0,-100.00,South,176,8.0,-999.0,79,0.00,,,-99.99,,2013-08-06 19:32:00,
2013-08-06 14:42:00,87.0,80.0,-100.00,South,176,8.0,-999.0,79,0.00,,,-99.99,,2013-08-06 19:42:00,
2013-08-06 15:22:00,88.0,81.0,-100.00,SSW,198,8.0,-999.0,79,0.00,,,-99.99,,2013-08-06 20:22:00,
2013-08-06 15:32:00,88.0,81.0,-100.00,SSW,198,8.0,-999.0,79,0.00,,,-99.99,,2013-08-06 20:32:00,
2013-08-06 15:44:00,88.0,81.0,-100.00,SSW,198,8.0,-999.0,79,0.00,,,-99.99,,2013-08-06 20:44:00,
2013-08-06 16:22:00,89.0,81.0,-100.00,SSW,213,10.0,-999.0,78,0.00,,,-99.99,,2013-08-06 21:22:00,
2013-08-06 16:32:00,89.0,81.0,-100.00,SSW,213,10.0,-999.0,78,0.00,,,-99.99,,2013-08-06 21:32:00,
2013-08-06 16:43:00,89.0,81.0,-100.00,SSW,213,10.0,-999.0,78,0.00,,,-99.99,,2013-08-06 21:43:00,
2013-08-06 17:22:00,89.0,81.0,-100.00,SW,223,12.0,-999.0,78,0.00,,,-99.99,,2013-08-06 22:22:00,
2013-08-06 17:32:00,89.0,81.0,-100.00,SW,223,12.0,-999.0,78,0.00,,,-99.99,,2013-08-06 22:32:00,
2013-08-06 17:43:00,89.0,81.0,-100.00,SW,223,12.0,-999.0,78,0.00,,,-99.99,,2013-08-06 22:43:00,
2013-08-06 18:22:00,89.0,80.0,-100.00,SW,229,10.0,-999.0,73,0.00,,,-99.99,,2013-08-06 23:22:00,
2013-08-06 18:32:00,89.0,80.0,-100.00,SW,229,10.0,-999.0,73,0.00,,,-99.99,,2013-08-06 23:32:00,
2013-08-06 18:43:00,89.0,80.0,-100.00,SW,229,10.0,-999.0,73,0.00,,,-99.99,,2013-08-06 23:43:00,
2013-08-06 19:21:00,88.0,80.0,-100.00,SW,232,7.0,-999.0,76,0.00,,,-99.99,,2013-08-07 00:21:00,
2013-08-06 19:32:00,88.0,80.0,-100.00,SW,232,7.0,-999.0,76,0.00,,,-99.99,,2013-08-07 00:32:00,
2013-08-06 19:43:00,88.0,80.0,-100.00,SW,232,7.0,-999.0,76,0.00,,,-99.99,,2013-08-07 00:43:00,
2013-08-06 20:22:00,87.0,79.0,-100.00,SW,228,7.0,-999.0,76,0.00,,,-99.99,,2013-08-07 01:22:00,
2013-08-06 20:32:00,87.0,79.0,-100.00,SW,228,7.0,-999.0,76,0.00,,,-99.99,,2013-08-07 01:32:00,
2013-08-06 20:43:00,87.0,79.0,-100.00,SW,228,7.0,-999.0,76,0.00,,,-99.99,,2013-08-07 01:43:00,
2013-08-06 21:22:00,87.0,77.0,-100.00,SW,236,6.0,-999.0,71,0.00,,,-99.99,,2013-08-07 02:22:00,
2013-08-06 21:33:00,87.0,77.0,-100.00,SW,236,6.0,-999.0,71,0.00,,,-99.99,,2013-08-07 02:33:00,
2013-08-06 21:43:00,87.0,77.0,-100.00,SW,236,6.0,-999.0,71,0.00,,,-99.99,,2013-08-07 02:43:00,
2013-08-06 22:23:00,81.0,78.0,-100.00,NE,51,16.0,-999.0,88,0.00,,,-99.99,,2013-08-07 03:23:00,
2013-08-06 22:32:00,81.0,78.0,-100.00,NE,51,16.0,-999.0,88,0.00,,,-99.99,,2013-08-07 03:32:00,
2013-08-06 22:43:00,81.0,78.0,-100.00,NE,51,16.0,-999.0,88,0.00,,,-99.99,,2013-08-07 03:43:00,
2013-08-06 23:22:00,79.0,-99.9,-100.00,NNE,29,6.0,-999.0,102,0.00,,,-99.99,,2013-08-07 04:22:00,
2013-08-06 23:33:00,79.0,-99.9,-100.00,NNE,29,6.0,-999.0,102,0.00,,,-99.99,,2013-08-07 04:33:00,
2013-08-06 23:43:00,79.0,-99.9,-100.00,NNE,29,6.0,-999.0,102,0.00,,,-99.99,,2013-08-07 04:43:00,